User: anonymous   Login
Location: Newark
(42.8481°N, 0.4872°E)
Time: 12:59:06
(UTC+00:00)
Language:

A-11 Canister half - Orbit

View from above orbital plane
View from above orbital plane
View from above satellite
View from above satellite

Ground track
Ground track

The orbit data is extracted from the following two-line orbital elements,

1    51U 60009C   20304.90095761 -.00000133 +00000-0 -46903-3 0  9991
2    51 047.2133 288.3771 0106325 207.1548 152.3652 12.18273200680608
Epoch (UTC): 30 October 2020 21:37:22
Eccentricity: 0.0106325
inclination: 47.2133°
perigee height: 1515 km
apogee height: 1685 km
right ascension of ascending node: 288.3771°
argument of perigee: 207.1548°
revolutions per day: 12.18273200
mean anomaly at epoch: 152.3652°
orbit number at epoch: 68060

The dashed part of the orbit path shows where the satellite is in the earth's shadow,  

DLR